Location: *
(43.9905°S, 176.4941°W)
Time: 05:35:31
(UTC+00:00)

Aureole 3 Rocket - Pass Details

Date: 08 December 2019
Orbit: 398 x 1741 km, 82.5° (Epoch: 25 January)

Event Time Altitude Azimuth Distance (km) Brightness Sun altitude
Rises 07:41:05 0° 359° (N) 2,971 6.2 -4.2°
Reaches altitude 10° 07:43:01 10° 1° (N) 2,211 5.5 -4.4°
Maximum altitude 07:47:59 75° 85° (E) 949 3.9 -5.1°
Drops below altitude 10° 07:55:10 10° 169° (S) 3,152 7.1 -6.1°
Sets 07:58:22 0° 170° (S) 4,337 7.8 -6.6°
